Location: Fort Worth, Tx
(32.7431°N, 97.3695°W)
Time: 14:25:16
(UTC-04:00)

ISS - Visible Passes

Search period start: 02 August 2021 00:00
Search period end: 12 August 2021 00:00
Orbit: 419 x 421 km, 51.6° (Epoch: 02 August)

Date Brightness Start Highest point End Pass type
(mag) Time Alt. Az. Time Alt. Az. Time Alt. Az.
02 Aug -0.4 00:17:02 10° W 00:17:05 10° W 00:17:05 10° W visible
02 Aug -1.7 21:53:00 10° NNW 21:55:27 18° NE 21:57:54 10° E visible
02 Aug -2.3 23:29:13 10° WNW 23:31:40 33° W 23:31:40 33° W visible
03 Aug -3.8 22:41:46 10° NW 22:45:08 76° SW 22:46:20 36° SSE visible
04 Aug -3.4 21:54:31 10° NW 21:57:49 54° NE 22:01:05 10° ESE visible
04 Aug -0.8 23:33:45 10° WSW 23:34:04 10° WSW 23:34:04 10° WSW visible
05 Aug -1.5 22:44:37 10° W 22:47:06 19° SW 22:48:54 13° SSW visible
06 Aug -2.5 21:56:48 10° WNW 21:59:55 36° SW 22:03:02 10° SSE visible
